LAN47CW SCEL-SBGR

Flight info

Callsign LAN47CW
Flight time N/A
Altitude 35000
Route NEBEG7C NEBEG UL531 ESITO UT652 SIKOB UM400 SAVLU UZ121 BUXUK
Aircraft A321/M-SDE3FGHIRWY/LB1

Departure

Time 2026-05-06 17:25
Airport Comodoro Arturo Merino Benítez International Airport (SCEL)

Arrival

Time N/A
Airport São Paulo/Guarulhos–Governor André Franco Montoro International Airport (SBGR)
Time Latitude Longitude Altitude Speed Heading
2026-05-06 17:08 -33.39591 -70.79294 1534 ft 0 kts 175°
2026-05-06 17:12 -33.39590 -70.79294 1564 ft 2 kts 175°
2026-05-06 17:12 -33.39564 -70.79297 1564 ft 4 kts 171°
2026-05-06 17:12 -33.39538 -70.79304 1564 ft 4 kts 160°
2026-05-06 17:12 -33.39515 -70.79318 1564 ft 4 kts 131°
2026-05-06 17:13 -33.39507 -70.79336 1564 ft 0 kts 87°
2026-05-06 17:15 -33.39506 -70.79329 1564 ft 4 kts 87°
2026-05-06 17:15 -33.39504 -70.79280 1564 ft 6 kts 87°
2026-05-06 17:15 -33.39503 -70.79252 1564 ft 4 kts 87°
2026-05-06 17:15 -33.39500 -70.79174 1564 ft 16 kts 87°
2026-05-06 17:16 -33.39495 -70.79043 1564 ft 14 kts 88°
2026-05-06 17:16 -33.39492 -70.78949 1564 ft 9 kts 88°
2026-05-06 17:16 -33.39473 -70.78904 1564 ft 4 kts 35°
2026-05-06 17:16 -33.39449 -70.78896 1564 ft 5 kts
2026-05-06 17:17 -33.39402 -70.78897 1564 ft 6 kts 358°
2026-05-06 17:17 -33.39328 -70.78901 1564 ft 16 kts 357°
2026-05-06 17:17 -33.39212 -70.78906 1564 ft 15 kts 358°
2026-05-06 17:17 -33.39126 -70.78910 1564 ft 10 kts 357°
2026-05-06 17:18 -33.39061 -70.78915 1564 ft 13 kts 356°
2026-05-06 17:18 -33.38915 -70.78923 1564 ft 25 kts 358°
2026-05-06 17:18 -33.38749 -70.78930 1564 ft 23 kts 357°
2026-05-06 17:18 -33.38595 -70.78940 1564 ft 21 kts 357°
2026-05-06 17:19 -33.38453 -70.78950 1564 ft 20 kts 356°
2026-05-06 17:19 -33.38360 -70.79025 1564 ft 17 kts 283°
2026-05-06 17:19 -33.38362 -70.79164 1564 ft 17 kts 267°
2026-05-06 17:19 -33.38367 -70.79304 1564 ft 17 kts 267°
2026-05-06 17:20 -33.38373 -70.79449 1564 ft 18 kts 266°
2026-05-06 17:20 -33.38378 -70.79600 1564 ft 19 kts 268°
2026-05-06 17:20 -33.38384 -70.79759 1564 ft 20 kts 266°
2026-05-06 17:20 -33.38390 -70.79924 1565 ft 20 kts 266°
2026-05-06 17:21 -33.38382 -70.80086 1566 ft 18 kts 312°
2026-05-06 17:21 -33.38261 -70.80113 1566 ft 18 kts 357°
2026-05-06 17:21 -33.38133 -70.80120 1566 ft 18 kts 359°
2026-05-06 17:21 -33.38003 -70.80127 1566 ft 19 kts 357°
2026-05-06 17:22 -33.37872 -70.80134 1566 ft 19 kts 358°
2026-05-06 17:22 -33.37739 -70.80141 1566 ft 19 kts 358°
2026-05-06 17:22 -33.37605 -70.80147 1566 ft 19 kts 358°
2026-05-06 17:22 -33.37470 -70.80156 1567 ft 20 kts 355°
2026-05-06 17:23 -33.37334 -70.80164 1567 ft 20 kts 358°
2026-05-06 17:23 -33.37197 -70.80170 1567 ft 20 kts 357°
2026-05-06 17:23 -33.37104 -70.80260 1570 ft 17 kts 279°
2026-05-06 17:23 -33.37147 -70.80365 1574 ft 14 kts 210°
2026-05-06 17:24 -33.37254 -70.80371 1573 ft 18 kts 177°
2026-05-06 17:24 -33.37541 -70.80356 1574 ft 73 kts 178°
2026-05-06 17:24 -33.38246 -70.80318 1573 ft 127 kts 177°
2026-05-06 17:24 -33.39275 -70.80263 1574 ft 167 kts 177°
2026-05-06 17:25 -33.40475 -70.80206 1992 ft 173 kts 180°
2026-05-06 17:25 -33.41677 -70.80178 2533 ft 173 kts 180°
2026-05-06 17:25 -33.42909 -70.80113 2912 ft 186 kts 178°
2026-05-06 17:25 -33.44271 -70.80030 3069 ft 205 kts 179°
2026-05-06 17:26 -33.45758 -70.79942 3208 ft 222 kts 179°
2026-05-06 17:26 -33.47349 -70.79849 3378 ft 236 kts 180°
2026-05-06 17:26 -33.49078 -70.79751 3536 ft 262 kts 179°
2026-05-06 17:26 -33.50955 -70.79645 4111 ft 274 kts 180°
2026-05-06 17:27 -33.52878 -70.79535 4884 ft 280 kts 181°
2026-05-06 17:27 -33.54847 -70.79376 5616 ft 286 kts 179°
2026-05-06 17:27 -33.56849 -70.79146 6378 ft 292 kts 178°
2026-05-06 17:27 -33.58886 -70.78884 7072 ft 297 kts 178°
2026-05-06 17:28 -33.60947 -70.78612 7806 ft 300 kts 178°
2026-05-06 17:28 -33.63031 -70.78343 8547 ft 303 kts 178°
2026-05-06 17:28 -33.65138 -70.78076 9285 ft 306 kts 179°
2026-05-06 17:28 -33.67262 -70.77812 10011 ft 308 kts 179°
2026-05-06 17:29 -33.69450 -70.77546 10327 ft 327 kts 179°
2026-05-06 17:29 -33.71786 -70.77272 10480 ft 348 kts 179°
2026-05-06 17:29 -33.74234 -70.76980 10926 ft 357 kts 179°
2026-05-06 17:29 -33.76716 -70.76600 11590 ft 364 kts 171°
2026-05-06 17:30 -33.79078 -70.75396 12347 ft 376 kts 149°
2026-05-06 17:30 -33.81002 -70.73219 13179 ft 385 kts 127°
2026-05-06 17:30 -33.82190 -70.70332 13965 ft 390 kts 104°
2026-05-06 17:30 -33.82481 -70.67099 14571 ft 392 kts 86°
2026-05-06 17:31 -33.82388 -70.63813 15182 ft 395 kts 85°
2026-05-06 17:31 -33.82275 -70.60495 15758 ft 399 kts 85°
2026-05-06 17:31 -33.82157 -70.57141 16322 ft 404 kts 85°
2026-05-06 17:31 -33.82041 -70.53749 16815 ft 409 kts 85°
2026-05-06 17:32 -33.81929 -70.50325 16952 ft 411 kts 85°
2026-05-06 17:32 -33.81825 -70.46898 16963 ft 411 kts 85°
2026-05-06 17:32 -33.81723 -70.43452 16960 ft 412 kts 84°
2026-05-06 17:32 -33.81621 -70.40007 16998 ft 413 kts 84°
2026-05-06 17:33 -33.81515 -70.36535 17586 ft 417 kts 85°
2026-05-06 17:33 -33.81407 -70.33036 18220 ft 421 kts 85°
2026-05-06 17:33 -33.81297 -70.29492 18628 ft 427 kts 85°
2026-05-06 17:33 -33.81187 -70.25912 19073 ft 431 kts 85°
2026-05-06 17:34 -33.81071 -70.22271 19522 ft 441 kts 85°
2026-05-06 17:34 -33.80952 -70.18580 20035 ft 443 kts 85°
2026-05-06 17:34 -33.80833 -70.14861 20493 ft 447 kts 86°
2026-05-06 17:34 -33.80711 -70.11111 20930 ft 451 kts 85°
2026-05-06 17:35 -33.80585 -70.07328 21350 ft 455 kts 86°
2026-05-06 17:35 -33.80461 -70.03553 21768 ft 460 kts 85°
2026-05-06 17:35 -33.80334 -69.99694 22165 ft 465 kts 85°
2026-05-06 17:36 -33.80068 -69.91848 23091 ft 475 kts 87°
2026-05-06 17:36 -33.80197 -69.87862 23513 ft 479 kts 96°
2026-05-06 17:36 -33.80593 -69.83883 23658 ft 482 kts 97°
2026-05-06 17:36 -33.81004 -69.79854 23927 ft 488 kts 97°
2026-05-06 17:37 -33.81418 -69.75790 24137 ft 493 kts 96°
2026-05-06 17:37 -33.81832 -69.71685 24508 ft 496 kts 96°
2026-05-06 17:37 -33.82245 -69.67552 24816 ft 500 kts 96°
2026-05-06 17:37 -33.82655 -69.63397 25166 ft 502 kts 96°
2026-05-06 17:38 -33.83064 -69.59207 25464 ft 507 kts 96°
2026-05-06 17:38 -33.83475 -69.54981 25783 ft 510 kts 96°
2026-05-06 17:38 -33.83888 -69.50733 26074 ft 512 kts 96°
2026-05-06 17:38 -33.84303 -69.46463 26330 ft 516 kts 96°
2026-05-06 17:39 -33.84721 -69.42166 26601 ft 519 kts 95°
2026-05-06 17:39 -33.85140 -69.37842 26912 ft 521 kts 96°
2026-05-06 17:39 -33.85558 -69.33504 27237 ft 523 kts 96°
2026-05-06 17:39 -33.85975 -69.29137 27514 ft 527 kts 96°
2026-05-06 17:40 -33.86392 -69.24747 27776 ft 528 kts 96°
2026-05-06 17:40 -33.86812 -69.20334 28007 ft 533 kts 96°
2026-05-06 17:40 -33.87233 -69.15886 28266 ft 537 kts 96°
2026-05-06 17:40 -33.87655 -69.11404 28529 ft 540 kts 95°
2026-05-06 17:41 -33.88075 -69.06901 28798 ft 542 kts 95°
2026-05-06 17:41 -33.88495 -69.02381 29068 ft 545 kts 95°
2026-05-06 17:41 -33.88916 -68.97831 29344 ft 548 kts 95°
2026-05-06 17:41 -33.89207 -68.93251 29582 ft 549 kts 88°
2026-05-06 17:42 -33.89017 -68.88666 29813 ft 549 kts 79°
2026-05-06 17:42 -33.88332 -68.84166 30035 ft 545 kts 70°
2026-05-06 17:42 -33.87176 -68.79837 30262 ft 540 kts 61°
2026-05-06 17:42 -33.85640 -68.75737 30490 ft 537 kts 57°
2026-05-06 17:43 -33.84042 -68.71673 30815 ft 537 kts 57°
2026-05-06 17:43 -33.82449 -68.67611 31177 ft 537 kts 57°
2026-05-06 17:43 -33.80864 -68.63554 31500 ft 536 kts 57°
2026-05-06 17:43 -33.79279 -68.59499 31848 ft 536 kts 57°
2026-05-06 17:44 -33.77693 -68.55449 32195 ft 535 kts 56°
2026-05-06 17:44 -33.76104 -68.51407 32539 ft 534 kts 56°
2026-05-06 17:44 -33.74515 -68.47385 32897 ft 533 kts 56°
2026-05-06 17:44 -33.72946 -68.43418 33252 ft 532 kts 56°
2026-05-06 17:45 -33.71361 -68.39414 33599 ft 531 kts 56°
2026-05-06 17:45 -33.69778 -68.35411 33901 ft 530 kts 56°
2026-05-06 17:45 -33.68179 -68.31373 34203 ft 528 kts 56°
2026-05-06 17:45 -33.66604 -68.27401 34514 ft 526 kts 56°
2026-05-06 17:46 -33.65035 -68.23440 34637 ft 524 kts 56°
2026-05-06 17:46 -33.63484 -68.19512 34674 ft 518 kts 56°
2026-05-06 17:46 -33.60400 -68.11744 34669 ft 515 kts 56°
2026-05-06 17:47 -33.57304 -68.04003 34669 ft 515 kts 56°
2026-05-06 17:47 -33.54202 -67.96262 34672 ft 515 kts 56°
2026-05-06 17:48 -33.51095 -67.88513 34670 ft 516 kts 56°
2026-05-06 17:48 -33.47982 -67.80768 34661 ft 516 kts 56°
2026-05-06 17:49 -33.44867 -67.73020 34655 ft 516 kts 56°
2026-05-06 17:49 -33.41746 -67.65284 34657 ft 516 kts 55°
2026-05-06 17:50 -33.38623 -67.57567 34673 ft 515 kts 55°
2026-05-06 17:50 -33.35525 -67.49916 34674 ft 513 kts 55°
2026-05-06 17:51 -33.32411 -67.42250 34688 ft 512 kts 55°
2026-05-06 17:51 -33.29300 -67.34612 34686 ft 510 kts 55°
2026-05-06 17:52 -33.26193 -67.27009 34685 ft 508 kts 55°
2026-05-06 17:52 -33.23095 -67.19422 34685 ft 507 kts 55°
2026-05-06 17:53 -33.20012 -67.11873 34683 ft 505 kts 54°
2026-05-06 17:53 -33.16924 -67.04358 34683 ft 503 kts 54°
2026-05-06 17:54 -33.13840 -66.96863 34676 ft 503 kts 54°
2026-05-06 17:54 -33.10748 -66.89374 34667 ft 503 kts 54°
2026-05-06 17:55 -33.08177 -66.83150 34660 ft 503 kts 54°
2026-05-06 17:55 -33.05071 -66.75657 34654 ft 504 kts 54°
2026-05-06 17:56 -33.01961 -66.68168 34646 ft 504 kts 54°
2026-05-06 17:56 -32.98841 -66.60667 34646 ft 505 kts 53°
2026-05-06 17:57 -32.95718 -66.53175 34646 ft 505 kts 53°
2026-05-06 17:57 -32.92587 -66.45679 34646 ft 505 kts 54°
2026-05-06 17:58 -32.89451 -66.38187 34664 ft 505 kts 53°
2026-05-06 17:58 -32.86306 -66.30698 34672 ft 505 kts 53°
2026-05-06 17:59 -32.83183 -66.23273 34684 ft 505 kts 53°
2026-05-06 17:59 -32.80031 -66.15799 34698 ft 504 kts 53°
2026-05-06 18:00 -32.76892 -66.08362 34706 ft 502 kts 53°
2026-05-06 18:00 -32.73702 -66.00980 34714 ft 501 kts 52°
2026-05-06 18:01 -32.70484 -65.93654 34711 ft 500 kts 52°
2026-05-06 18:01 -32.67272 -65.86340 34710 ft 499 kts 52°
2026-05-06 18:02 -32.64077 -65.79024 34705 ft 499 kts 52°
2026-05-06 18:02 -32.60881 -65.71716 34701 ft 499 kts 52°
2026-05-06 18:03 -32.57693 -65.64461 34700 ft 498 kts 52°
2026-05-06 18:03 -32.54483 -65.57181 34697 ft 498 kts 52°
2026-05-06 18:04 -32.51268 -65.49900 34698 ft 498 kts 51°
2026-05-06 18:04 -32.48055 -65.42626 34694 ft 499 kts 51°
2026-05-06 18:05 -32.44834 -65.35356 34692 ft 499 kts 51°
2026-05-06 18:05 -32.41604 -65.28091 34698 ft 499 kts 51°
2026-05-06 18:06 -32.38367 -65.20820 34708 ft 499 kts 51°
2026-05-06 18:06 -32.35150 -65.13526 34710 ft 501 kts 52°
2026-05-06 18:07 -32.32017 -65.06149 34713 ft 502 kts 52°
2026-05-06 18:07 -32.28900 -64.98755 34713 ft 503 kts 52°
2026-05-06 18:08 -32.25753 -64.91367 34685 ft 502 kts 52°
2026-05-06 18:08 -32.22590 -64.84011 34685 ft 503 kts 52°
2026-05-06 18:09 -32.19416 -64.76648 34688 ft 503 kts 52°
2026-05-06 18:09 -32.16235 -64.69273 34685 ft 503 kts 52°
2026-05-06 18:10 -32.13051 -64.61907 34689 ft 503 kts 52°
2026-05-06 18:10 -32.09868 -64.54558 34682 ft 503 kts 52°
2026-05-06 18:11 -32.06709 -64.47267 34675 ft 502 kts 53°
2026-05-06 18:11 -32.03526 -64.39944 34668 ft 501 kts 52°
2026-05-06 18:12 -32.00337 -64.32629 34660 ft 501 kts 52°
2026-05-06 18:12 -31.97152 -64.25325 34658 ft 501 kts 52°
2026-05-06 18:13 -31.93956 -64.18024 34659 ft 501 kts 52°
2026-05-06 18:13 -31.90759 -64.10731 34658 ft 502 kts 52°
2026-05-06 18:14 -31.87557 -64.03435 34655 ft 502 kts 52°
2026-05-06 18:14 -31.84347 -63.96130 34660 ft 503 kts 52°
2026-05-06 18:15 -31.81128 -63.88830 34660 ft 503 kts 52°
2026-05-06 18:15 -31.77902 -63.81523 34657 ft 503 kts 52°
2026-05-06 18:16 -31.74615 -63.74269 34657 ft 501 kts 51°
2026-05-06 18:16 -31.71257 -63.67151 34658 ft 500 kts 50°
2026-05-06 18:17 -31.67867 -63.60010 34660 ft 501 kts 50°
2026-05-06 18:17 -31.64497 -63.52853 34662 ft 501 kts 51°
2026-05-06 18:18 -31.61138 -63.45683 34667 ft 501 kts 51°
2026-05-06 18:18 -31.57772 -63.38522 34676 ft 501 kts 51°
2026-05-06 18:19 -31.54401 -63.31379 34685 ft 500 kts 50°
2026-05-06 18:19 -31.51018 -63.24242 34683 ft 500 kts 50°
2026-05-06 18:20 -31.47639 -63.17113 34677 ft 500 kts 51°
2026-05-06 18:20 -31.44282 -63.09957 34678 ft 502 kts 52°
2026-05-06 18:21 -31.41025 -63.02706 34678 ft 504 kts 52°
2026-05-06 18:21 -31.37778 -62.95428 34681 ft 504 kts 52°
2026-05-06 18:22 -31.34491 -62.88178 34678 ft 504 kts 52°
2026-05-06 18:22 -31.31198 -62.80994 34681 ft 505 kts 52°
2026-05-06 18:23 -31.27878 -62.73753 34684 ft 505 kts 52°
2026-05-06 18:23 -31.24562 -62.66503 34684 ft 506 kts 52°
2026-05-06 18:24 -31.21245 -62.59253 34684 ft 506 kts 52°
2026-05-06 18:24 -31.17922 -62.51998 34685 ft 507 kts 52°
2026-05-06 18:25 -31.14585 -62.44745 34686 ft 507 kts 52°
2026-05-06 18:25 -31.11227 -62.37494 34689 ft 508 kts 52°
2026-05-06 18:26 -31.07870 -62.30246 34687 ft 508 kts 52°
2026-05-06 18:26 -31.04512 -62.22976 34686 ft 509 kts 52°
2026-05-06 18:27 -31.01150 -62.15704 34687 ft 510 kts 52°
2026-05-06 18:27 -30.97770 -62.08436 34685 ft 510 kts 52°
2026-05-06 18:28 -30.94387 -62.01166 34686 ft 511 kts 52°
2026-05-06 18:28 -30.90995 -61.93896 34692 ft 511 kts 51°
2026-05-06 18:29 -30.87594 -61.86630 34700 ft 511 kts 51°
2026-05-06 18:29 -30.84188 -61.79359 34700 ft 512 kts 51°
2026-05-06 18:30 -30.80783 -61.72087 34692 ft 512 kts 52°
2026-05-06 18:30 -30.77366 -61.64813 34692 ft 512 kts 51°
2026-05-06 18:31 -30.73941 -61.57556 34700 ft 512 kts 51°
2026-05-06 18:31 -30.70509 -61.50297 34703 ft 513 kts 51°
2026-05-06 18:32 -30.67062 -61.43050 34701 ft 512 kts 51°
2026-05-06 18:32 -30.63585 -61.35818 34701 ft 512 kts 51°
2026-05-06 18:33 -30.60100 -61.28595 34706 ft 513 kts 51°
2026-05-06 18:33 -30.56616 -61.21368 34708 ft 513 kts 51°
2026-05-06 18:34 -30.53127 -61.14136 34709 ft 513 kts 51°
2026-05-06 18:34 -30.50224 -61.08138 34712 ft 513 kts 51°
2026-05-06 18:35 -30.46728 -61.00920 34715 ft 513 kts 51°
2026-05-06 18:35 -30.43231 -60.93703 34721 ft 513 kts 51°
2026-05-06 18:36 -30.39726 -60.86491 34721 ft 514 kts 51°
2026-05-06 18:36 -30.36219 -60.79286 34726 ft 513 kts 51°
2026-05-06 18:37 -30.32710 -60.72088 34727 ft 513 kts 51°
2026-05-06 18:37 -30.29192 -60.64906 34726 ft 513 kts 51°
2026-05-06 18:38 -30.25675 -60.57719 34728 ft 513 kts 51°
2026-05-06 18:38 -30.22153 -60.50544 34731 ft 513 kts 51°
2026-05-06 18:39 -30.18620 -60.43375 34736 ft 513 kts 51°
2026-05-06 18:40 -30.14483 -60.31739 34745 ft 526 kts 63°
2026-05-06 18:40 -30.11966 -60.23803 34749 ft 526 kts 63°
2026-05-06 18:41 -30.09436 -60.15870 34749 ft 526 kts 63°
2026-05-06 18:41 -30.06904 -60.08003 34751 ft 526 kts 63°
2026-05-06 18:42 -30.04355 -60.00088 34759 ft 526 kts 63°
2026-05-06 18:42 -30.01803 -59.92169 34771 ft 526 kts 63°
2026-05-06 18:43 -29.99243 -59.84254 34776 ft 526 kts 63°
2026-05-06 18:43 -29.96683 -59.76344 34783 ft 527 kts 63°
2026-05-06 18:44 -29.94120 -59.68427 34790 ft 527 kts 63°
2026-05-06 18:44 -29.91545 -59.60520 34790 ft 527 kts 63°
2026-05-06 18:45 -29.88963 -59.52621 34787 ft 527 kts 63°
2026-05-06 18:45 -29.86386 -59.44722 34792 ft 527 kts 63°
2026-05-06 18:46 -29.83802 -59.36825 34801 ft 526 kts 63°
2026-05-06 18:46 -29.81210 -59.28942 34809 ft 526 kts 63°
2026-05-06 18:47 -29.78616 -59.21069 34810 ft 526 kts 63°
2026-05-06 18:47 -29.76023 -59.13204 34802 ft 525 kts 63°
2026-05-06 18:48 -29.73427 -59.05348 34805 ft 525 kts 63°
2026-05-06 18:48 -29.70823 -58.97504 34817 ft 525 kts 63°
2026-05-06 18:49 -29.68220 -58.89671 34821 ft 524 kts 63°
2026-05-06 18:49 -29.65656 -58.81822 34819 ft 525 kts 64°
2026-05-06 18:50 -29.63166 -58.73925 34817 ft 525 kts 65°
2026-05-06 18:50 -29.60682 -58.66033 34822 ft 525 kts 64°
2026-05-06 18:51 -29.58170 -58.58160 34824 ft 525 kts 64°
2026-05-06 18:51 -29.55640 -58.50302 34824 ft 524 kts 64°
2026-05-06 18:52 -29.53107 -58.42448 34826 ft 524 kts 64°
2026-05-06 18:52 -29.50571 -58.34602 34824 ft 524 kts 64°
2026-05-06 18:53 -29.48038 -58.26757 34830 ft 524 kts 65°
2026-05-06 18:53 -29.45508 -58.18922 34827 ft 524 kts 65°
2026-05-06 18:54 -29.42974 -58.11094 34829 ft 524 kts 65°
2026-05-06 18:54 -29.40361 -58.03302 34834 ft 522 kts 62°
2026-05-06 18:55 -29.37499 -57.95657 34837 ft 521 kts 60°
2026-05-06 18:55 -29.34567 -57.88051 34844 ft 521 kts 61°
2026-05-06 18:56 -29.31693 -57.80416 34846 ft 522 kts 62°
2026-05-06 18:56 -29.28863 -57.72755 34854 ft 522 kts 62°
2026-05-06 18:57 -29.26029 -57.65109 34862 ft 521 kts 62°
2026-05-06 18:57 -29.23203 -57.57465 34863 ft 522 kts 63°
2026-05-06 18:58 -29.20525 -57.49743 34864 ft 522 kts 64°
2026-05-06 18:58 -29.17910 -57.41990 34868 ft 522 kts 64°
2026-05-06 18:59 -29.15249 -57.34260 34874 ft 521 kts 64°
2026-05-06 18:59 -29.12561 -57.26570 34875 ft 521 kts 64°
2026-05-06 19:00 -29.09871 -57.18884 34877 ft 520 kts 64°
2026-05-06 19:00 -29.07192 -57.11206 34878 ft 520 kts 64°
2026-05-06 19:01 -29.04510 -57.03534 34868 ft 519 kts 64°
2026-05-06 19:01 -29.01817 -56.95881 34874 ft 519 kts 64°
2026-05-06 19:02 -28.99120 -56.88230 34887 ft 519 kts 64°
2026-05-06 19:02 -28.96421 -56.80586 34890 ft 519 kts 64°
2026-05-06 19:03 -28.93726 -56.72939 34900 ft 519 kts 64°
2026-05-06 19:03 -28.91038 -56.65309 34895 ft 518 kts 64°
2026-05-06 19:04 -28.88336 -56.57693 34897 ft 518 kts 64°
2026-05-06 19:04 -28.85621 -56.50084 34899 ft 518 kts 64°
2026-05-06 19:05 -28.82912 -56.42467 34898 ft 518 kts 64°
2026-05-06 19:05 -28.80199 -56.34867 34904 ft 517 kts 64°
2026-05-06 19:06 -28.77479 -56.27267 34900 ft 517 kts 64°
2026-05-06 19:06 -28.74774 -56.19708 34908 ft 517 kts 64°
2026-05-06 19:07 -28.72053 -56.12115 34907 ft 518 kts 64°
2026-05-06 19:07 -28.69389 -56.04490 34910 ft 518 kts 65°
2026-05-06 19:08 -28.66767 -55.96842 34915 ft 518 kts 65°
2026-05-06 19:08 -28.64127 -55.89202 34919 ft 518 kts 65°
2026-05-06 19:09 -28.61457 -55.81580 34917 ft 518 kts 65°
2026-05-06 19:09 -28.58782 -55.73969 34922 ft 518 kts 65°
2026-05-06 19:10 -28.56112 -55.66346 34925 ft 518 kts 65°
2026-05-06 19:10 -28.53445 -55.58738 34924 ft 517 kts 65°
2026-05-06 19:11 -28.50772 -55.51146 34925 ft 517 kts 65°
2026-05-06 19:11 -28.48093 -55.43549 34931 ft 517 kts 65°
2026-05-06 19:12 -28.45407 -55.35956 34940 ft 518 kts 65°
2026-05-06 19:12 -28.42716 -55.28370 34947 ft 517 kts 65°
2026-05-06 19:13 -28.40020 -55.20787 34945 ft 517 kts 65°
2026-05-06 19:13 -28.37347 -55.13267 34949 ft 517 kts 65°
2026-05-06 19:14 -28.34648 -55.05700 34948 ft 517 kts 65°
2026-05-06 19:14 -28.31944 -54.98142 34951 ft 517 kts 65°
2026-05-06 19:15 -28.29238 -54.90579 34950 ft 517 kts 65°
2026-05-06 19:15 -28.26968 -54.84248 34954 ft 517 kts 65°
2026-05-06 19:16 -28.24258 -54.76698 34955 ft 517 kts 65°
2026-05-06 19:16 -28.21539 -54.69152 34960 ft 517 kts 65°
2026-05-06 19:17 -28.18828 -54.61649 34959 ft 517 kts 65°
2026-05-06 19:17 -28.16101 -54.54114 34965 ft 517 kts 65°
2026-05-06 19:18 -28.13371 -54.46578 34969 ft 516 kts 65°
2026-05-06 19:18 -28.10636 -54.39055 34976 ft 516 kts 65°
2026-05-06 19:19 -28.07900 -54.31537 34979 ft 516 kts 65°
2026-05-06 19:19 -28.05166 -54.24012 34993 ft 517 kts 65°
2026-05-06 19:20 -28.02417 -54.16496 34996 ft 517 kts 65°
2026-05-06 19:20 -27.99659 -54.08983 34994 ft 517 kts 65°
2026-05-06 19:21 -27.96900 -54.01471 35001 ft 517 kts 66°
2026-05-06 19:21 -27.94145 -53.93953 35001 ft 517 kts 66°
2026-05-06 19:22 -27.91389 -53.86438 35008 ft 517 kts 66°
2026-05-06 19:22 -27.88616 -53.78928 35009 ft 518 kts 66°
2026-05-06 19:23 -27.85837 -53.71419 35003 ft 518 kts 66°
2026-05-06 19:23 -27.83048 -53.63917 35015 ft 518 kts 66°
2026-05-06 19:24 -27.80266 -53.56424 35011 ft 517 kts 66°
2026-05-06 19:24 -27.77501 -53.48974 35014 ft 517 kts 66°
2026-05-06 19:25 -27.74715 -53.41484 35016 ft 517 kts 66°
2026-05-06 19:25 -27.71914 -53.33997 35016 ft 517 kts 66°
2026-05-06 19:26 -27.69117 -53.26516 35018 ft 517 kts 66°
2026-05-06 19:26 -27.66318 -53.19039 35024 ft 517 kts 66°
2026-05-06 19:27 -27.63517 -53.11561 35018 ft 518 kts 66°
2026-05-06 19:27 -27.60702 -53.04095 35026 ft 518 kts 66°
2026-05-06 19:28 -27.57885 -52.96627 35031 ft 518 kts 66°
2026-05-06 19:28 -27.55069 -52.89161 35041 ft 518 kts 66°
2026-05-06 19:29 -27.52245 -52.81700 35039 ft 518 kts 66°
2026-05-06 19:29 -27.49406 -52.74243 35040 ft 518 kts 66°
2026-05-06 19:30 -27.46571 -52.66789 35050 ft 517 kts 66°
2026-05-06 19:30 -27.43741 -52.59340 35063 ft 518 kts 66°
2026-05-06 19:31 -27.40906 -52.51891 35063 ft 517 kts 66°
2026-05-06 19:31 -27.36643 -52.40751 35064 ft 516 kts 66°
2026-05-06 19:32 -27.33801 -52.33343 35055 ft 516 kts 66°
2026-05-06 19:32 -27.30956 -52.25927 35057 ft 516 kts 66°
2026-05-06 19:33 -27.28109 -52.18528 35059 ft 516 kts 66°
2026-05-06 19:33 -27.25264 -52.11129 35065 ft 516 kts 67°
2026-05-06 19:34 -27.22433 -52.03781 35068 ft 515 kts 67°
2026-05-06 19:34 -27.19571 -51.96399 35072 ft 515 kts 66°
2026-05-06 19:35 -27.16701 -51.89027 35077 ft 515 kts 66°
2026-05-06 19:35 -27.13834 -51.81659 35082 ft 515 kts 67°
2026-05-06 19:36 -27.10968 -51.74300 35088 ft 514 kts 67°
2026-05-06 19:36 -27.08099 -51.66951 35092 ft 514 kts 67°
2026-05-06 19:37 -27.05230 -51.59614 35097 ft 513 kts 67°
2026-05-06 19:37 -27.02816 -51.53470 35093 ft 513 kts 67°
2026-05-06 19:38 -26.99479 -51.44951 35101 ft 513 kts 67°
2026-05-06 19:38 -26.96602 -51.37626 35106 ft 512 kts 67°
2026-05-06 19:39 -26.93727 -51.30318 35107 ft 512 kts 67°
2026-05-06 19:39 -26.90846 -51.23021 35111 ft 512 kts 67°
2026-05-06 19:40 -26.87951 -51.15730 35119 ft 512 kts 67°
2026-05-06 19:40 -26.85065 -51.08441 35125 ft 512 kts 67°
2026-05-06 19:41 -26.82184 -51.01157 35133 ft 512 kts 67°
2026-05-06 19:41 -26.79294 -50.93882 35143 ft 511 kts 67°
2026-05-06 19:42 -26.76390 -50.86630 35142 ft 510 kts 67°
2026-05-06 19:42 -26.73495 -50.79387 35148 ft 510 kts 68°
2026-05-06 19:43 -26.70601 -50.72149 35146 ft 509 kts 68°